Regional Weather Roundup
Issued by NWS

Home | Current Version | Previous Version | Graphics & Text | Print | Product List | Glossary Off
Versions: 1 2 3 4 5 6 7 8 9 10 11 12 13 14 15 16 17 18 19 20 21 22 23 24 25 26 27 28 29 30 31 32 33 34 35 36 37 38 39 40 41 42 43 44 45 46 47 48 49 50

000
ASUS43 KLSX 070207
RWRMO

WEATHER SUMMARY FOR MISSOURI
NATIONAL WEATHER SERVICE SPRINGFIELD MO
900 PM CDT MON JUL 06 2015

NOTE: "FAIR" INDICATES FEW OR NO CLOUDS BELOW 12,000 FEET WITH NO
       SIGNIFICANT WEATHER AND/OR OBSTRUCTIONS TO VISIBILITY.
       CURRENT SKY AND/OR WEATHER CONDITIONS ARE NOT AVAILABLE FOR
       CHILLICOTHE AND FARMINGTON.

MOZ001>031-035>038-043-044-053-054-070300-
...NORTHERN AND WESTERN MISSOURI...

CITY           SKY/WX    TMP DP  RH WIND       PRES   REMARKS
KANSAS CTY INT CLOUDY    71  70  96 CALM      29.88S
KANSAS C DTWN  CLOUDY    72  71  97 CALM      29.87R
LEE`S SUMMIT   LGT RAIN  72  69  90 S3        29.89R
ST JOSEPH      LGT RAIN  73  72  96 MISG      29.89R
CHILLICOTHE      N/A     73  72  96 CALM      29.89F
KIRKSVILLE     LGT RAIN  73  71  93 CALM      29.90S

$$
MOZ066>068-077>081-088>096-101>105-070300-
...SOUTHWEST MISSOURI...

CITY           SKY/WX    TMP DP  RH WIND       PRES   REMARKS
SPRINGFIELD    CLOUDY    78  74  87 S9        29.92F
JOPLIN         CLOUDY    80  73  79 S13       29.90F

$$
MOZ032>034-039>042-045>050-055>058-069>072-070300-
...CENTRAL MISSOURI...

CITY           SKY/WX    TMP DP  RH WIND       PRES   REMARKS
COLUMBIA       CLOUDY    80  74  81 S6        29.87S
JEFFERSON CITY CLOUDY    82  73  74 S7        29.85F
ROLLA          CLOUDY    78  71  79 S10       29.90F
SEDALIA        LGT RAIN  74  70  87 N17G23    29.89R
WHITEMAN AFB   LGT RAIN  72  71  97 N6        29.87F
WARRENSBURG    RAIN      70  70 100 E7        29.85F
OSAGE BEACH    CLOUDY    81  70  69 S8        29.89S

$$
MOZ051-052-059>065-070300-
...EAST CENTRAL MISSOURI...

CITY           SKY/WX    TMP DP  RH WIND       PRES   REMARKS
ST LOUIS INTL  CLOUDY    84  73  69 S9        29.91R HX  90
SPIRIT OF STL  CLOUDY    82  74  76 VRB6      29.89S
ST CHARLES     CLOUDY    79  75  87 SE5       29.89R

$$
MOZ072>076-082>087-097>100-106>115-070300-
...SOUTH CENTRAL AND SOUTHEAST MISSOURI...

CITY           SKY/WX    TMP DP  RH WIND       PRES   REMARKS
CAPE GIRARDEAU PTCLDY    80  74  81 S7        29.96S
FARMINGTON     MOCLDY    79  73  83 S8        29.99S
POPLAR BLUFF   PTCLDY    79  74  84 S8        29.94F
WEST PLAINS    CLOUDY    78  71  79 S7        29.97F

$$


USA.gov is the U.S. government's official web portal to all federal, state and local government web resources and services.